[[{"header":{"parameterUnit":"m.s-1","parameterCategory":1,"la1":30.2991,"la2":30.254,"lo1":-89.0895,"lo2":-89.0444,"dy":0.0017,"dx":0.0017,"nx":28,"ny":28,"refTime":"2023-08-06T09:00:00:Z","depth":0,"parameterNumber":2,"parameterNumberName":"U-component_of_WINDS"},"data":[0,0,0,0,0,0,0,0,0,0,0,0,0,0,0,0,0,0,0,0,0,0,0,0,0,0,0,0,0,0,0,0,0,0,0,0,0,0,0,0,0,0,0,0,0,0,0,0,0,0,0,0,0,0,0,0,0,0,3.0559,3.056,0,3.0659,3.066,3.0661,3.0649,3.0647,3.0645,3.0644,3.0752,3.0757,3.0761,0,0,0,0,0,0,0,0,0,0,0,0,0,3.0363,3.0367,3.0559,3.056,3.0561,3.0659,3.066,3.0662,3.0649,3.0647,3.0645,3.0643,3.0751,3.0756,3.0761,0,0,0,0,0,0,0,0,0,0,0,0,0,3.0454,3.0368,3.0559,3.0567,3.0568,3.0659,3.066,3.0662,3.0649,3.0647,3.0644,3.0642,3.0749,3.0756,3.0762,3.0853,0,0,3.0782,3.0785,0,0,0,0,0,0,0,0,3.0449,3.0461,3.0564,3.0566,3.0568,3.0639,3.0631,3.0726,3.065,3.0619,3.0644,3.0641,3.0717,3.0726,3.075,3.0858,3.0862,3.0783,3.0787,3.079,3.0792,0,0,0,0,0,0,0,3.0443,3.0457,3.0599,3.0566,3.0568,3.0567,3.0577,3.0649,3.0681,3.0621,3.0621,3.0632,3.0718,3.0744,3.0753,3.0864,3.0783,3.0789,3.0793,3.0795,3.1052,3.1055,0,0,0,0,0,0,3.0433,3.0452,3.0596,3.0602,3.0501,3.0573,3.0584,3.0619,3.068,3.0687,3.0634,3.0631,3.0734,3.0745,3.0757,3.0868,3.079,3.0796,3.08,3.105,3.1053,3.1056,0,0,0,0,0,0,3.0429,3.0446,3.0592,3.0527,3.0545,3.0579,3.0618,3.0622,3.0648,3.069,3.0696,3.0655,3.0732,3.0747,3.0829,3.0871,3.0799,3.0805,3.1046,3.1051,3.1055,3.1089,0,0,0,0,0,0,3.0424,3.0445,3.0478,3.0527,3.0548,3.066,3.062,3.0626,3.0659,3.0656,3.0711,3.0717,3.0732,3.0819,3.0835,3.0879,3.081,3.1043,3.1048,3.1053,3.1085,3.1094,3.1103,0,0,0,0,0,3.0417,3.0485,3.048,3.0497,3.059,3.0662,3.0675,3.0688,3.0662,3.0697,3.0724,3.0716,3.0864,3.0827,3.0846,3.0892,3.104,3.1047,3.1053,3.1081,3.1093,3.1102,0,0,0,0,0,0,3.0442,3.0492,3.0486,3.0572,3.0613,3.066,3.0704,3.07,3.075,3.0746,3.0762,3.0774,3.0857,3.0883,3.0841,3.0984,3.0949,3.0959,3.0964,3.0975,3.0984,3.0976,3.0816,0,0,0,0,0,3.0457,3.0509,3.0551,3.0623,3.0643,3.067,3.0702,3.0709,3.0752,3.077,3.0803,3.0847,3.0904,3.0941,3.0995,3.1088,3.1101,3.1129,3.1138,3.1146,3.1155,3.1207,3.1221,3.1077,3.1077,3.1077,0,0,3.0489,3.0523,3.0556,3.0629,3.0661,3.0717,3.0685,3.0745,3.0788,3.078,3.0858,3.0884,3.0935,3.1023,3.1063,3.1047,3.1197,3.1154,3.1159,3.1164,3.1215,3.1229,3.1241,3.1081,3.1081,3.108,0,0,3.0577,3.0607,3.0671,3.0704,3.0752,3.077,3.0785,3.0834,3.085,3.0928,3.0924,3.0976,3.1073,3.1109,3.1141,3.1243,3.1238,3.1261,3.1308,3.1359,3.137,3.138,3.1418,3.1431,3.1269,3.127,3.127,0,3.0612,3.0694,3.0704,3.0765,3.0799,3.0792,3.0858,3.089,3.0955,3.0979,3.096,3.1081,3.1115,3.1212,3.1237,3.1262,3.1282,3.1255,3.1367,3.1378,3.1387,3.1423,3.1437,3.1272,3.1272,3.1272,3.1271,0,3.0735,3.0792,3.0838,3.0899,3.0937,3.1,3.1023,3.106,3.1064,3.1084,3.1166,3.1206,3.1269,3.1292,3.1297,3.1391,3.1379,3.1363,3.1329,3.1403,3.1438,3.1451,3.1276,3.1275,3.1274,3.1273,0,0,3.0841,3.0907,3.0924,3.0952,3.1006,3.1051,3.1115,3.1175,3.1207,3.1253,3.1308,3.139,3.1376,3.1412,3.1421,3.1465,3.1545,3.1444,3.1446,3.1462,3.1653,3.1664,3.168,3.1542,3.1545,3.1547,3.1648,0,3.0934,3.1045,3.1057,3.1156,3.1211,3.1206,3.1262,3.1302,3.1323,3.1374,3.1398,3.1456,3.1433,3.1454,3.1498,3.1526,3.1584,3.1519,3.1595,3.1598,3.1583,3.1698,3.171,3.1804,3.1662,3.1664,3.1666,0,3.1058,3.1105,3.121,3.1257,3.128,3.133,3.1386,3.1434,3.148,3.1493,3.1532,3.1536,3.1604,3.1566,3.1661,3.1617,3.1649,3.1668,3.1672,3.168,3.1637,3.171,3.1834,3.1848,3.1687,3.1685,3.1684,0,3.1126,3.1216,3.129,3.1315,3.1371,3.1406,3.1432,3.1476,3.1511,3.1561,3.1585,3.1642,3.1674,3.172,3.174,3.171,3.1834,3.1798,3.1848,3.1848,3.1875,3.1873,3.2007,3.1895,3.1894,3.1894,3.1894,0,3.123,3.1294,3.1322,3.1367,3.144,3.1454,3.1527,3.1551,3.159,3.1642,3.1643,3.1692,3.1714,3.1768,3.1784,3.1861,3.1876,3.1889,3.1892,3.1889,3.1887,3.1911,3.1905,3.1898,3.1897,3.1896,3.1896,0,3.1318,3.1339,3.142,3.1466,3.148,3.1531,3.1572,3.1618,3.1638,3.1704,3.1721,3.1754,3.1817,3.184,3.1918,3.1929,3.2018,3.2016,3.2002,3.2003,3.2052,3.2047,3.2206,3.2228,3.2101,3.2102,3.2103,0,3.1382,3.1432,3.1484,3.1518,3.1544,3.1599,3.1635,3.1651,3.1689,3.1746,3.1785,3.1847,3.1898,3.1999,3.2031,3.2091,3.2091,3.2142,3.21,3.2095,3.2093,3.2089,3.2095,3.215,3.2152,3.2153,3.2154,0,3.1496,3.1504,3.1554,3.1609,3.1651,3.1696,3.1739,3.1767,3.1791,3.1833,3.1897,3.1936,3.2014,3.2077,3.2138,3.2167,3.2165,3.2167,3.2182,3.2179,3.2168,3.2175,3.2024,3.2163,3.2162,3.2161,3.2161,3.2161,3.1575,3.1619,3.1662,3.1719,3.1753,3.1793,3.1838,3.1864,3.1916,3.198,3.1987,3.2056,3.2103,3.2184,3.2216,3.2271,3.2257,3.2279,3.2284,3.229,3.2293,3.2159,3.2282,3.2282,3.2282,3.2282,3.2282,0,3.1689,3.1716,3.1768,3.1828,3.1873,3.1865,3.1913,3.1952,3.2012,3.2054,3.2104,3.2178,3.2238,3.2275,3.2337,3.2374,3.2375,3.239,3.2387,3.2394,3.2302,3.2283,3.2388,3.2388,3.2388,3.2388,3.2388,3.2388,3.1753,3.1827,3.184,3.1932,3.196,3.2025,3.2053,3.2092,3.2126,3.2207,3.2257,3.228,3.2321,3.2386,3.2442,3.2451,3.2474,3.249,3.2499,3.2412,3.2401,3.239,3.2373,3.2495,3.2495,3.2587,3.2588,3.2589]},{"header":{"parameterUnit":"m.s-1","parameterCategory":1,"la1":30.2991,"la2":30.254,"lo1":-89.0895,"lo2":-89.0444,"dy":0.0017,"dx":0.0017,"nx":28,"ny":28,"refTime":"2023-08-06T09:00:00:Z","depth":0,"parameterNumber":3,"parameterNumberName":"V-component_of_WINDS"},"data":[0,0,0,0,0,0,0,0,0,0,0,0,0,0,0,0,0,0,0,0,0,0,0,0,0,0,0,0,0,0,0,0,0,0,0,0,0,0,0,0,0,0,0,0,0,0,0,0,0,0,0,0,0,0,0,0,0,0,2.6042,2.6043,0,2.6068,2.6068,2.6068,2.6081,2.6081,2.6081,2.6081,2.6104,2.6105,2.6105,0,0,0,0,0,0,0,0,0,0,0,0,0,2.6,2.6001,2.6042,2.6043,2.6043,2.6068,2.6068,2.6068,2.6081,2.6081,2.6081,2.6081,2.6104,2.6104,2.6105,0,0,0,0,0,0,0,0,0,0,0,0,0,2.6021,2.6001,2.6042,2.6052,2.6053,2.6068,2.6068,2.6069,2.6081,2.6081,2.6081,2.6081,2.6103,2.6104,2.6105,2.6111,0,0,2.6108,2.6109,0,0,0,0,0,0,0,0,2.602,2.6023,2.605,2.6052,2.6053,2.6071,2.6062,2.6083,2.6081,2.607,2.6081,2.6081,2.6093,2.6095,2.6099,2.6112,2.6113,2.6108,2.6109,2.6109,2.6109,0,0,0,0,0,0,0,2.6019,2.6022,2.6052,2.6051,2.6052,2.6054,2.6057,2.6066,2.6081,2.6071,2.6072,2.6075,2.6093,2.6098,2.61,2.6113,2.6108,2.6109,2.611,2.611,2.6129,2.6129,0,0,0,0,0,0,2.6016,2.6021,2.6052,2.6053,2.6036,2.6055,2.6058,2.6065,2.6081,2.6084,2.6075,2.6075,2.6097,2.6099,2.6101,2.6107,2.6109,2.611,2.6111,2.6129,2.6129,2.6129,0,0,0,0,0,0,2.6015,2.6019,2.6051,2.6037,2.6041,2.6055,2.6063,2.6066,2.6071,2.6084,2.6086,2.6078,2.6097,2.6099,2.6108,2.6108,2.611,2.6111,2.6129,2.6129,2.6129,2.612,0,0,0,0,0,0,2.6014,2.6018,2.6022,2.6037,2.6042,2.6059,2.6063,2.6066,2.6073,2.6073,2.6087,2.6089,2.6097,2.6106,2.6109,2.6109,2.6112,2.6129,2.6129,2.6129,2.612,2.6119,2.6119,0,0,0,0,0,2.6012,2.6018,2.6022,2.6026,2.6047,2.6059,2.6061,2.6071,2.6073,2.6075,2.6083,2.6089,2.6107,2.6107,2.611,2.6111,2.6129,2.6129,2.6129,2.6121,2.612,2.6119,0,0,0,0,0,0,2.6003,2.6021,2.6025,2.6037,2.6046,2.6061,2.6065,2.607,2.6079,2.6079,2.609,2.6093,2.61,2.6106,2.6105,2.6115,2.6119,2.6119,2.6111,2.611,2.611,2.6108,2.6113,0,0,0,0,0,2.6002,2.6011,2.6026,2.6034,2.6039,2.6051,2.6056,2.6063,2.6073,2.6077,2.6086,2.6094,2.6101,2.6106,2.6114,2.6121,2.6123,2.6122,2.6122,2.6121,2.6121,2.6123,2.6122,2.6129,2.6129,2.6129,0,0,2.6001,2.6011,2.6017,2.6033,2.6041,2.6048,2.6054,2.6063,2.6068,2.6078,2.6086,2.6093,2.6102,2.6109,2.6113,2.6115,2.612,2.6121,2.612,2.6121,2.6123,2.6122,2.6122,2.6129,2.6129,2.6129,0,0,2.6002,2.6012,2.6019,2.6026,2.6038,2.6046,2.6047,2.6061,2.6066,2.6074,2.6081,2.6086,2.61,2.6106,2.6111,2.6111,2.6116,2.6113,2.611,2.6111,2.6111,2.611,2.6109,2.6108,2.6113,2.6113,2.6113,0,2.5998,2.6011,2.6022,2.6029,2.6035,2.6044,2.605,2.6057,2.607,2.6073,2.6075,2.6091,2.6098,2.6106,2.6105,2.611,2.611,2.6112,2.611,2.611,2.6109,2.6108,2.6108,2.6113,2.6113,2.6113,2.6113,0,2.6005,2.6014,2.6018,2.6031,2.6037,2.6044,2.6053,2.6058,2.6063,2.607,2.6077,2.6086,2.6095,2.6097,2.6102,2.6104,2.6105,2.6108,2.6112,2.6108,2.6107,2.6107,2.6112,2.6112,2.6113,2.6113,0,0,2.6003,2.602,2.6021,2.6026,2.6038,2.6044,2.605,2.6059,2.6062,2.607,2.6074,2.6084,2.6087,2.6092,2.6098,2.6099,2.6096,2.6102,2.6103,2.61,2.6097,2.6094,2.6093,2.61,2.6099,2.6099,2.6096,0,2.6005,2.6017,2.6025,2.6033,2.604,2.6047,2.6052,2.6059,2.6065,2.607,2.6076,2.6082,2.6086,2.6089,2.6091,2.6097,2.6096,2.6097,2.6102,2.6102,2.6099,2.6093,2.609,2.6086,2.6096,2.6095,2.6095,0,2.6009,2.6017,2.6026,2.6035,2.6039,2.6043,2.605,2.6056,2.6063,2.6067,2.6072,2.6077,2.6081,2.6084,2.6089,2.609,2.6092,2.6095,2.6095,2.6095,2.6098,2.6092,2.6086,2.6085,2.6095,2.6095,2.6095,0,2.6005,2.6017,2.6024,2.6028,2.604,2.6042,2.6047,2.6054,2.6058,2.6064,2.6066,2.6072,2.6075,2.6079,2.6085,2.6087,2.6089,2.6093,2.6091,2.6091,2.6091,2.6091,2.6084,2.6094,2.6094,2.6094,2.6094,0,2.6006,2.6011,2.6021,2.6025,2.603,2.6038,2.6042,2.6047,2.6053,2.6057,2.6063,2.6066,2.6074,2.6078,2.6082,2.6085,2.6086,2.6088,2.6089,2.6088,2.6087,2.6089,2.6089,2.6094,2.6094,2.6094,2.6094,0,2.6002,2.601,2.6017,2.6026,2.6029,2.6032,2.6039,2.6042,2.6047,2.6052,2.6053,2.6061,2.6065,2.6071,2.6078,2.608,2.6081,2.6084,2.6079,2.608,2.6077,2.6077,2.607,2.6069,2.608,2.608,2.608,0,2.6002,2.6006,2.6015,2.6018,2.6023,2.6028,2.6031,2.6038,2.6042,2.6049,2.605,2.6055,2.6059,2.6065,2.607,2.6074,2.6076,2.6073,2.6077,2.6074,2.6074,2.6074,2.6073,2.6073,2.6072,2.6072,2.6072,0,2.6,2.6003,2.6009,2.6015,2.6019,2.6024,2.6029,2.6031,2.6039,2.6042,2.6046,2.6049,2.6054,2.6058,2.6062,2.6066,2.607,2.6071,2.607,2.6068,2.6065,2.6065,2.6076,2.6071,2.6071,2.6071,2.6071,2.6071,2.5998,2.6,2.6007,2.6012,2.6016,2.602,2.6023,2.6028,2.6032,2.6037,2.604,2.6044,2.6048,2.6055,2.6058,2.6059,2.6061,2.6061,2.6061,2.606,2.6059,2.6065,2.606,2.606,2.606,2.606,2.606,0,2.5995,2.5999,2.6004,2.6011,2.6014,2.6017,2.6022,2.6024,2.6028,2.6032,2.6035,2.6039,2.6042,2.6047,2.605,2.605,2.6052,2.605,2.605,2.605,2.6058,2.6057,2.6049,2.6049,2.6049,2.6049,2.6049,2.6049,2.5995,2.5999,2.6002,2.6007,2.6011,2.6014,2.6017,2.602,2.6023,2.6027,2.6029,2.6032,2.6036,2.6039,2.6041,2.6042,2.6043,2.6041,2.6042,2.6049,2.605,2.6051,2.6051,2.6041,2.6041,2.6035,2.6034,2.6034]}]]